STARLINK-34651

Last updated on Tue Aug 19 2025 00:02:06 GMT+0000 (Coordinated Universal Time)

1 64861U 25152V 25230.60759711 .00025727 00000+0 41300-3 0 9991 2 64861 97.6037 84.3046 0001164 81.6256 278.5128 15.53034542 4799
UTC large
Height (km)
Speed (km/s)
/
Latitude / Longitude
Inclination (degrees)
Orbital Period (minutes)
Azimuth
Elevation
Range (km)
Doppler Factor

Next 0 passes for location: London (51.5072 / 0.1276)

Sorry there are no passes over London.